Location: Unspecified
(0.0000°N, 0.0000°E)
Time: 01:20:08
(UTC+01:00)

Daily predictions for brighter satellites

Satellite Brightness Start Highest point End
(mag) Time Altitude Azimuth Time Altitude Azimuth Time Altitude Azimuth
Centaur AC-42 3.5 04:37:18 74° N 04:37:40 75° NNE 05:14:19 10° ESE
Centaur AC-42 3.5 04:37:18 74° N 04:37:40 75° NNE 05:14:20 10° ESE
Centaur AC-42 3.5 04:37:18 74° N 04:37:41 75° NNE 05:14:19 10° ESE
Centaur AC-42 3.5 04:37:18 74° N 04:37:41 75° NNE 05:14:20 10° ESE
ARIANE 5 R/B 3.7 04:41:00 33° SE 04:41:00 33° SE 04:46:58 10° ESE
BLOCK DM-SL R/B 4.1 04:44:05 18° E 04:44:05 18° E 04:46:01 10° E
Cosmos 2219 Rocket 4.0 04:45:55 23° NNE 04:45:55 23° NNE 04:48:00 10° NNE
ARIANE 5 R/B 3.7 04:56:20 21° ENE 04:56:20 21° ENE 04:57:10 10° ENE
NOSS 3-1 (C) 4.1 05:00:36 34° SSE 05:02:22 44° ESE 05:07:41 10° NE
Cosmos 2237 Rocket 2.8 05:03:06 32° SSE 05:05:27 52° ESE 05:10:56 10° NNE
Okean-O 4.4 05:08:39 10° NNE 05:10:24 24° NNE 05:10:24 24° NNE
Cosmos 2181 Rocket 4.1 05:10:07 10° S 05:16:13 71° E 05:22:20 10° N
Cosmos 1025 Rocket 4.3 05:12:29 10° SSE 05:16:33 40° E 05:20:37 10° NNE
Cosmos 2333 Rocket 2.2 05:19:18 64° NNW 05:19:18 64° NNW 05:24:13 10° N
Feng Yun 1-1 Rocket 4.2 05:12:59 10° NNE 05:18:42 86° ESE 05:23:39 13° SSW
Cosmos 968 Rocket 3.3 05:20:15 81° N 05:20:30 89° ENE 05:25:42 10° SSE
Meteor 1-12 Rocket 4.5 05:16:45 10° N 05:22:25 70° E 05:28:13 10° SSE
ARIANE 5 R/B 3.9 05:29:33 37° S 05:29:33 37° S 05:32:54 10° ESE
Cosmos 468 Rocket 4.0 05:31:01 56° NW 05:31:01 56° NW 05:35:28 10° N
Cosmos 405 Rocket 3.8 05:28:14 10° S 05:32:10 48° E 05:36:06 10° NNE
Cosmos 1455 Rocket 3.1 05:35:11 59° SSW 05:35:11 59° SSW 05:38:56 10° S
GPS 2-05 Rocket1 3.7 05:35:42 45° ENE 05:35:42 45° ENE 05:38:23 10° ESE
Cosmos 2327 Rocket 4.5 05:31:24 10° NNW 05:37:23 54° W 05:43:19 10° S
Cosmos 2084 Rocket 4.1 05:34:52 20° N 05:37:32 53° ENE 05:41:47 10° SE
Cosmos 2263 Rocket 2.0 05:34:26 10° NNW 05:39:59 88° W 05:45:34 10° SSE
CZ-2C R/B 3.7 05:37:16 10° SSE 05:42:01 88° WSW 05:46:40 10° NNW
Cosmos 1610 Rocket 4.4 05:36:34 10° N 05:42:51 73° W 05:49:14 10° S
Okean 1-7 Rocket 3.6 05:41:44 41° SW 05:43:01 57° W 05:47:28 10° N
Skynet4D Del rocket 3.9 05:42:39 36° WSW 05:45:23 89° NNW 05:52:21 10° ENE
EO 1 Del DPAF 4.0 05:44:50 10° S 05:47:26 36° SSW 05:47:26 36° SSW
Cosmos 2341 Rocket 4.2 05:50:29 10° N 05:56:39 73° E 06:02:50 10° S
SL-16 R/B 2.6 05:53:49 10° S 05:59:25 67° ESE 06:05:01 10° NNE
Cosmos 371 Rocket 3.2 05:55:53 10° SSW 06:00:43 88° E 06:05:32 10° NNE
Ariane Rocket 3.9 05:57:13 10° NNE 06:02:05 50° ESE 06:06:58 10° S
Cosmos 332 Rocket 3.8 05:57:52 10° SSW 06:02:42 60° WNW 06:07:31 10° N
Cosmos 1763 Rocket 3.4 05:58:31 10° SSW 06:03:29 57° WNW 06:08:25 10° N
Cosmos 1743 2.5 06:02:08 10° N 06:05:56 74° W 06:09:45 10° S
Cosmos 1666 3.5 06:03:06 10° N 06:06:53 54° E 06:10:41 10° SSE
Lacrosse 4 Rocket 4.2 06:04:59 10° NNE 06:08:22 22° ENE 06:11:48 10° ESE
GPS 2-17 Rocket1 4.1 06:05:56 15° SW 06:09:18 38° SSE 06:13:27 10° E
Cosmos 1777 Rocket 4.0 06:05:03 10° NNW 06:10:13 58° WSW 06:15:23 10° S
Cosmos 1900 4.3 06:06:54 10° NNW 06:12:00 81° WSW 06:17:08 10° SSE
Cosmos 841 Rocket 3.5 06:09:15 10° SSW 06:14:21 57° WNW 06:19:24 10° N
OAO 3 Rocket 3.2 06:11:02 13° SW 06:15:09 77° SE 06:19:48 10° ENE
Radarsat Rocket 4.3 06:11:58 10° N 06:17:26 43° WNW 06:23:13 10° SSW
Atlas Centaur 2 3.2 06:16:18 10° SSW 06:19:23 22° SSE 06:22:14 10° E
IDEFIX/ARIANE 42P 3.6 06:20:35 10° NNE 06:25:35 51° ESE 06:30:38 10° S
USA 215 4.0 06:19:19 10° SE 06:25:44 57° NE 06:32:08 10° NNW
Okean 2 4.3 06:23:22 10° SW 06:26:48 26° W 06:30:14 10° NNW
Ariane H10+ 3.5 06:25:29 14° W 06:28:54 83° S 06:42:01 10° E
SEDSat Delta rocket 3.9 06:30:24 10° SW 06:34:58 47° SSE 06:39:03 10° ENE
Aurora 2 Rocket 3.9 06:30:32 11° W 06:35:10 42° SSW 06:42:03 10° SE
COSMO-SKYMED 1 3.1 06:31:00 10° SSE 06:35:18 64° ENE 06:39:35 10° N
ARIANE 5 R/B 4.1 06:02:01 17° W 06:35:25 65° NNW 06:41:00 10° ENE
Lacrosse 5 2.1 06:32:56 10° NNW 06:37:59 77° ENE 06:43:03 10° SE
GPS 2-15 Rocket1 4.1 06:34:17 10° W 06:38:28 32° NNW 06:42:38 10° NE
Cosmos 540 Rocket 3.4 06:35:55 10° SSW 06:41:03 82° WNW 06:46:09 10° N
Thor Agena Rocket 3.5 06:36:08 10° S 06:41:14 64° WSW 06:46:15 10° NNW
CSL-04 Rocket 3.8 06:36:08 10° N 06:41:37 64° WNW 06:47:05 10° SSW
Iridium 2 3.9 06:38:40 10° NNW 06:42:22 50° W 06:46:08 10° SSW
Meteor 2-9 Rocket 4.1 06:41:31 10° NNW 06:46:57 65° W 06:52:17 10° S
Ariane H10 3.5 06:32:23 10° W 06:50:52 60° S 06:54:34 10° E
